Home > Weather > Royan > Past weeks

Flag for France Past Weather in Royan, Poitou-Charentes, France — Yesterday and Last 2 Weeks

Now
95 °F

Passing clouds.


Feels Like: 93 °F
Forecast: 64 / 82 °F
Wind: 8 mph from Southeast

Location: Cognac Airport

Current Time: Aug 25, 2016 at 5:14:30 PM

Latest Report: Aug 25, 2016 at 4:30 PM


Visibility: N/A

Pressure: 29.92 "Hg

Humidity: 25%

Dew Point: 54 °F

Location of RoyanLocation

Past Weather in Royan — Graph

°F

Royan Temperature Yesterday

Maximum temperature yesterday: 95 °F (at 4:00 PM)
Minimum temperature yesterday: 63 °F (at 6:00 AM)
Average temperature yesterday: 78 °F

High & Low Weather Summary for the Past Weeks

 TemperatureHumidityPressure
High97 °F (Aug 23, 4:30 PM)100% (Aug 24, 7:30 AM)30.36 "Hg (Aug 24, 7:30 AM)
Low52 °F (Aug 11, 6:30 AM)22% (Aug 14, 5:30 PM)29.83 "Hg (Aug 19, 7:30 AM)
Average74 °F58%30.09 "Hg
* Reported Aug 10 4:00 PM — Aug 25 4:00 PM, Royan, Weather by CustomWeather, © 2016

Note: Actual official high and low records may vary slightly from our data, if they occured in-between our weather recording intervals... More about our weather records

Advertising

Royan Weather History for the Previous 24 Hours

Scroll right to see more
 ConditionsComfort  
Time TempWeatherWind HumidityBarometerVisibility
4:00 PM
Thu, Aug 25
95 °FPassing clouds.8 mph25%29.95 "HgN/A
3:30 PM95 °FPassing clouds.7 mph25%29.95 "HgN/A
3:00 PM93 °FPassing clouds.7 mph28%29.95 "HgN/A
2:30 PM93 °FSunny.5 mph28%29.98 "Hg10 mi
2:00 PM91 °FSunny.5 mph30%29.98 "Hg10 mi
1:30 PM90 °FSunny.6 mph33%29.98 "Hg10 mi
1:00 PM90 °FPassing clouds.6 mph31%29.98 "HgN/A
12:30 PM88 °FPassing clouds.6 mph33%30.01 "HgN/A
12:00 PM86 °FPassing clouds.7 mph38%30.01 "HgN/A
11:30 AM84 °FPassing clouds.6 mph40%30.01 "HgN/A
11:00 AM84 °FPassing clouds.13 mph40%30.01 "HgN/A
10:30 AM82 °FPassing clouds.12 mph42%30.01 "HgN/A
10:00 AM79 °FSunny.10 mph51%30.01 "Hg10 mi
9:30 AM77 °FPassing clouds.6 mph57%30.01 "HgN/A
9:00 AM73 °FPassing clouds.5 mph69%30.01 "HgN/A
8:30 AM70 °FPassing clouds.3 mph78%29.98 "HgN/A
8:00 AM66 °FClear.3 mph83%29.98 "Hg10 mi
7:30 AM66 °FPassing clouds.3 mph83%29.98 "HgN/A
7:00 AM63 °FClear.5 mph88%29.98 "Hg10 mi
6:30 AM63 °FClear.5 mph88%29.98 "Hg10 mi
6:00 AM63 °FClear.6 mph88%29.98 "Hg10 mi
5:30 AM66 °FClear.1 mph83%29.98 "Hg10 mi
5:00 AM66 °FClear.2 mph83%29.98 "Hg10 mi
4:30 AM66 °FClear.No wind88%29.98 "Hg10 mi
4:00 AM66 °FClear.No wind88%30.01 "Hg10 mi
3:30 AM68 °FClear.No wind83%30.01 "Hg10 mi
3:00 AM68 °FClear.3 mph83%30.01 "Hg10 mi
2:30 AM70 °FClear.3 mph78%30.01 "Hg10 mi
2:00 AM70 °FClear.6 mph83%30.01 "Hg10 mi
1:30 AM72 °FClear.2 mph83%30.01 "Hg10 mi
1:00 AM72 °FClear.3 mph83%30.01 "Hg10 mi
12:30 AM73 °FClear.2 mph78%30.01 "Hg10 mi
12:00 AM73 °FClear.2 mph78%30.01 "Hg10 mi
11:30 PM
Wed, Aug 24
75 °FClear.5 mph74%30.01 "Hg10 mi
11:00 PM77 °FClear.5 mph69%30.01 "Hg10 mi
10:30 PM79 °FPassing clouds.5 mph70%30.01 "HgN/A
10:00 PM81 °FClear.3 mph66%30.01 "Hg10 mi
9:30 PM81 °FSunny.3 mph66%30.01 "Hg10 mi
9:00 PM82 °FSunny.6 mph62%30.01 "Hg10 mi
8:30 PM86 °FSunny.9 mph55%30.01 "Hg10 mi
8:00 PM88 °FSunny.7 mph52%29.98 "Hg10 mi
7:30 PM90 °FSunny.8 mph49%29.98 "Hg10 mi
7:00 PM91 °FPassing clouds.8 mph46%29.98 "HgN/A
6:30 PM91 °FSunny.13 mph46%29.98 "Hg10 mi
6:00 PM95 °FSunny.2 mph30%29.98 "Hg10 mi
5:30 PM95 °FPassing clouds.3 mph28%30.01 "HgN/A
5:00 PM95 °FSunny.2 mph30%30.01 "Hg10 mi
Weather by CustomWeather, © 2016

See weather overviewHow to use our weather pages